Showing default

ALOUETTE 2, 1804

Orbit data source: Space-Track

ALOUETTE 2, 1804 is a payload satellite owned by DRTE (CA) in LEO that was launched on Mon, 29 Nov 1965 UTC via a THOR SLV-2 AGENA B launch vehicle from the Air Force Western Test Range (AFWTR). Payload-class satellites include a variety of spacecraft equipped with specific instruments for various scientific and technological missions. These include communications satellites like Starlink; space stations such as the ISS; scientific satellites like the Hubble; Earth observation satellites from companies like Planet Labs, Umbra, and HawkEye 360; GPS; miniature CubeSats for education and research; and military/defense satellites.

Loading next visibility...
Identifier
1804, 1965-098A
Orbit
LEO
Country
Flag of CACA
Related business
Manufacturer
DEHAVT/RCAV
Mission
Civil Science
Bus & Motor
ALOUETTE, Unknown motor
Mass
145 kg wet, 145 kg dry
Launch date (UTC)
1965-11-29 (60 years ago)
Launch vehicle
THOR SLV-2 AGENA B
Launch site
Air Force Western Test Range (AFWTR)
Object type
Payload
Rocket body
Debris
Shape & HBR
Ell + 1 Rod, 36.5 m
Radar Cross Section
0.732 m², Medium (>0.1 m² and < 1m²)

Expand to show TLE details & history
Last TLE update: 12 hours ago

TLE from 12 hours ago
0 ALOUETTE 2
1 01804U 65098A   25258.73609721  .00000848  00000-0  27238-3 0  9993
2 01804  79.8022 150.1016 1331630  68.8609 304.9393 12.27953985645581
Epoch: 2025-09-15T17:39Z
TLE epoch observation values (Epoch: 2025-09-15T17:39:58.798Z)
Latitude
-0.00005°
Longitude
-109.82988°
Altitude
1,060.949 km
Speed
7.548 km/s
True Right ascension
10h 00m 24s
True Declination
0° 00' 00"
Sunlit
Object was in daylight at epoch
Visualization orbit readout
Latitude
Unknown
Longitude
Unknown
Altitude
Unknown
Speed
Unknown
Apparent Right ascension
Unknown
Apparent Declination
Unknown
Sunlit
N/A
Visualization observer readout
Local Sidereal Time
22:50:29
Azimuth
Unknown
Elevation
Unknown
Doppler factor
Unknown
Orbital elements
Apogee altitude
2,611.976 km
Perigee altitude
499.04 km
Semi-major axis
7,933.645 km
Eccentricity
0.13316
Inclination
79.8022°
RAAN
150.1016°
Arg. of periapsis
68.8609°
True anomaly
291.25123°
Mean anomaly
304.9393°
Eccentric anomaly
298.21626°
Mean motion
3.07138 °/min
Orbital period
117.21 mins
BSTAR
0.00027238
Loading maneuver chart data...
Computing Atmospheric mass density...
Loading historical data...
Loading historical data...
Loading historical data...
Loading historical data...
Loading historical data...
Loading historical data...
Loading historical data...

Documentation

Showing up to 5 results
|